CAPE
49 59 23 14 21 15 18 21 22 19 16 20 31 55 51 28 2 0 0 0 14 5 0 0 0 10 7 4 0 1 0 1 1 0 2 0 0 0 0 0 0 0 0 1 0 0 0 0 0 0 0 0 0 0
83 55 23 15 26 15 8 12 21 20 15 16 28 34 49 21 0 0 1 0 0 0 1 2 3 5 1 1 0 0 0 0 0 0 0 1 0 1 1 0 0 0 0 0 0 0 0 0 0 0 0 0 0 0
25 24 17 10 13 11 20 12 10 22 14 15 32 43 24 4 8 11 2 0 0 0 0 0 0 0 0 1 0 0 2 0 0 0 2 0 0 2 0 2 0 0 0 0 0 0 0 0 0 0 0 0 0 0
47 37 22 20 8 9 12 23 18 15 25 39 30 20 8 0 4 11 5 0 0 0 0 0 2 0 0 1 0 0 0 0 0 0 1 1 0 0 0 0 0 0 0 0 0 0 0 0 0 0 0 0 0 0
40 23 12 10 9 14 17 19 23 27 33 20 4 1 2 3 6 7 0 0 0 0 1 1 1 1 0 1 0 0 0 0 1 0 1 0 0 0 0 0 0 0 0 0 0 0 0 0 0 0 0 0 0 0
12 21 20 13 12 14 19 20 15 5 3 1 1 0 0 0 1 0 0 1 0 0 0 0 0 0 1 1 2 1 2 2 3 1 0 0 0 0 0 0 0 0 0 0 0 0 0 0 0 0 0 0 0 0
11 12 7 8 12 9 4 0 0 0 0 0 0 0 1 4 0 12 0 0 0 0 0 0 1 0 1 2 1 2 2 0 0 0 0 0 0 0 0 0 0 0 0 0 0 0 0 0 0 0 3 6 3 9
6 8 2 0 0 0 0 0 0 0 0 1 0 1 1 0 0 0 1 1 0 0 0 1 0 0 1 0 0 0 0 0 0 0 0 0 0 0 0 0 0 0 0 0 0 0 0 0 0 0 1 3 9 2
8 9 6 2 0 0 0 0 0 2 2 1 1 0 0 0 0 1 0 0 0 0 1 2 0 1 1 1 0 0 3 0 0 0 0 0 0 0 0 0 0 0 0 0 0 0 0 0 3 0 0 1 1 0
0 1 3 0 0 0 0 2 0 1 2 0 0 0 0 2 1 3 0 0 0 0 1 1 0 0 0 0 1 0 1 0 0 0 0 0 0 0 0 0 0 0 0 0 0 0 2 1 1 2 1 4 2 1
0 0 0 1 0 0 0 0 2 2 0 0 0 1 1 7 3 0 1 2 3 3 0 0 0 1 1 0 0 0 0 0 0 0 0 0 1 0 0 0 0 0 0 0 0 0 1 1 1 1 4 4 3 0
0 2 4 3 0 0 1 2 0 0 0 0 0 2 1 0 0 0 0 0 0 0 0 1 2 0 0 0 0 0 0 0 0 0 0 0 0 0 1 1 1 0 0 0 0 0 0 1 1 1 2 0 0 2
0 0 0 0 0 2 2 0 0 0 0 0 0 0 0 0 0 0 0 0 0 0 0 0 0 0 0 0 0 0 0 0 0 0 0 0 1 0 0 1 0 0 0 0 1 1 0 0 0 0 0 0 0 0
0 1 1 1 2 0 0 0 0 0 0 0 0 0 0 0 0 0 0 0 0 0 2 0 0 0 0 0 0 0 0 0 0 0 0 0 0 4 0 0 0 0 0 0 0 0 0 0 0 0 0 0 0 0
2 2 0 1 6 4 0 0 0 0 0 0 0 0 0 0 0 0 0 0 0 0 0 0 0 0 0 0 0 0 0 0 0 0 2 0 1 0 0 1 0 0 0 0 0 0 0 0 0 0 0 0 0 0
4 2 2 2 0 0 0 0 0 0 0 0 1 0 0 0 3 1 0 0 1 0 0 0 0 0 0 0 0 0 0 0 0 0 1 0 0 0 0 0 0 0 0 0 0 0 0 0 0 0 0 0 0 0
0 0 2 0 0 0 0 0 0 0 0 0 0 3 8 7 9 6 4 1 0 0 0 0 0 0 0 0 0 0 0 0 1 0 1 0 0 0 0 0 0 0 0 0 0 0 0 0 0 0 0 0 0 0
1 4 0 0 0 0 0 0 0 0 0 0 0 1 16 9 8 0 0 0 0 0 0 0 0 0 0 0 0 10 1 1 0 0 1 1 0 0 0 0 0 0 0 0 0 0 0 0 0 0 0 0 0 0
2 0 0 0 0 0 0 0 0 0 0 1 0 5 4 1 0 0 0 0 0 0 0 0 0 0 0 0 0 1 2 0 0 0 1 0 0 0 0 0 0 0 0 0 0 0 0 0 0 0 0 0 0 0
0 0 0 0 0 0 0 0 1 6 9 5 8 4 2 4 1 0 0 0 0 0 0 0 0 0 0 0 0 0 0 0 0 0 0 0 0 0 0 0 0 0 0 0 0 0 0 0 0 0 0 0 0 0
0 0 0 0 0 0 0 0 0 1 4 2 5 3 3 5 2 0 0 0 0 0 0 2 0 0 0 0 0 0 0 0 0 0 0 0 0 0 0 0 0 0 0 0 0 0 0 0 0 0 0 1 0 0
0 0 0 0 0 0 0 0 0 0 1 4 0 0 1 1 0 0 0 0 0 0 1 0 0 0 0 0 0 0 0 0 0 0 0 0 0 0 0 0 0 0 0 0 0 0 0 0 0 0 1 1 0 0
0 0 0 0 0 0 0 0 0 0 0 0 0 0 0 0 0 0 0 0 6 4 0 0 1 0 0 0 0 0 0 0 0 0 0 0 0 0 0 0 0 0 0 0 0 0 0 0 0 0 1 1 2 0
0 0 0 0 0 0 0 0 0 0 0 0 0 0 0 0 0 0 0 1 3 2 0 0 0 0 0 0 0 0 0 0 0 0 0 0 0 0 0 0 0 0 0 0 0 0 0 0 0 1 0 1 0 0
0 0 0 0 0 0 0 0 0 0 0 0 0 0 0 0 0 0 0 1 2 0 0 0 0 0 0 0 0 0 0 0 0 0 0 0 0 0 0 0 0 0 0 0 0 0 1 0 1 0 0 1 0 0
0 0 0 0 0 0 0 0 0 0 0 0 0 0 0 0 0 0 0 2 1 0 0 0 0 0 0 0 0 0 0 0 0 0 0 0 0 0 0 0 0 0 0 0 0 0 0 0 0 0 1 0 0 0
0 0 0 0 0 0 0 0 0 0 0 0 0 0 0 0 0 0 0 1 0 2 0 0 0 0 0 0 0 0 0 0 0 0 0 0 0 0 0 0 0 0 0 0 0 0 0 0 0 1 0 1 1 0
0 0 0 0 0 0 0 0 0 0 0 0 0 0 0 0 0 0 0 2 0 0 0 3 0 0 0 0 0 0 0 0 0 0 0 0 0 0 0 0 0 0 0 0 0 0 0 0 0 0 1 0 0 0
0 1 0 0 0 0 0 0 0 0 0 0 0 0 0 0 0 0 0 0 1 3 0 0 0 0 0 0 0 0 0 0 0 0 0 0 0 0 0 0 0 0 0 0 0 0 0 0 0 0 0 0 0 0
0 0 0 0 0 0 1 1 0 0 0 0 0 0 0 1 0 0 0 0 0 0 0 0 0 0 0 0 3 1 0 0 0 0 0 0 0 0 0 0 0 0 0 0 1 0 0 0 0 0 0 0 0 0
0 2 1 1 1 1 1 1 0 0 1 1 0 0 0 1 0 0 0 0 0 1 1 0 0 1 2 2 2 2 2 0 0 0 0 0 0 0 0 0 0 2 0 0 0 0 0 0 0 0 0 0 0 0
0 2 1 0 1 1 0 0 0 0 0 0 0 0 0 0 0 1 1 0 2 2 1 1 1 1 1 0 0 0 0 0 0 0 0 0 0 0 0 0 0 0 0 0 0 0 0 0 0 0 0 0 0 0
0 0 1 1 1 0 0 0 0 0 1 0 1 0 0 1 1 2 0 1 1 1 0 0 0 0 0 0 0 0 0 0 0 0 0 0 0 0 0 0 0 0 0 0 0 0 0 0 0 0 0 0 0 0
CIN
-10 -0 -6 -10 -0 -0 -11 -14 -0 -0 -0 -2 -2 -1 -13 -12 -14 -0 -0 -0 -2 -1 -0 -0 -0 -2 -4 -7 -0 -0 -0 -0 -0 -19 -3 -0 -0 -0 -0 -0 -0 -0 -0 -0 -0 -0 -0 -0 -0 -0 -0 -0 -0 -0
-0 -20 -1 -0 -1 -0 -2 -1 -0 -0 -4 -4 -8 -17 -22 -13 -0 -0 -1 -0 -0 -0 -0 -0 -0 -0 -0 -1 -0 -0 -0 -0 -0 -0 -0 -0 -0 -0 -0 -0 -0 -0 -0 -0 -0 -0 -0 -0 -0 -0 -0 -0 -0 -0
-0 -0 -0 -0 -1 -1 -0 -3 -2 -1 -4 -3 -9 -21 -8 -8 -14 -8 -5 -0 -0 -0 -0 -0 -0 -0 -0 -0 -0 -0 -0 -0 -0 -0 -0 -0 -0 -0 -0 -0 -0 -0 -0 -0 -0 -0 -0 -0 -0 -0 -0 -0 -0 -0
-0 -0 -0 -0 -0 -3 -1 -0 -3 -3 -2 -10 -20 -32 -25 -0 -21 -3 -1 -0 -3 -0 -0 -0 -0 -0 -0 -0 -0 -0 -0 -0 -0 -0 -0 -0 -0 -0 -0 -0 -0 -0 -0 -0 -0 -0 -0 -0 -0 -0 -0 -0 -0 -0
-1 -3 -2 -0 -1 -1 -3 -2 -2 -7 -11 -17 -39 -18 -30 -37 -4 -2 -0 -0 -0 -0 -0 -0 -0 -0 -0 -0 -0 -0 -0 -0 -0 -0 -0 -0 -0 -0 -0 -0 -0 -0 -0 -0 -0 -0 -0 -0 -0 -0 -0 -0 -0 -0
-0 -0 -1 -3 -6 -3 -3 -6 -14 -24 -30 -40 -13 -0 -0 -7 -0 -0 -0 -0 -0 -0 -0 -0 -0 -0 -0 -0 -0 -0 -0 -0 -0 -0 -0 -0 -0 -0 -0 -0 -0 -0 -0 -0 -0 -0 -0 -0 -0 -0 -0 -0 -0 -0
-0 -3 -6 -6 -9 -10 -11 -0 -0 -0 -0 -0 -0 -0 -5 -1 -0 -2 -0 -0 -0 -0 -0 -0 -0 -0 -0 -0 -0 -0 -0 -0 -0 -0 -0 -0 -0 -0 -0 -0 -0 -0 -0 -0 -0 -0 -0 -0 -0 -0 -1 -2 -9 -5
-2 -2 -6 -0 -0 -0 -0 -0 -0 -0 -0 -2 -0 -0 -0 -0 -0 -0 -0 -0 -0 -0 -0 -0 -0 -0 -0 -0 -0 -0 -0 -0 -0 -0 -0 -0 -0 -0 -0 -0 -0 -0 -0 -0 -0 -0 -0 -2 -0 -0 -1 -1 -2 -1
-4 -8 -13 -21 -0 -0 -0 -0 -5 -6 -1 -0 -0 -0 -0 -0 -0 -0 -0 -0 -0 -0 -0 -0 -0 -0 -0 -0 -0 -1 -0 -0 -0 -0 -0 -0 -0 -0 -0 -0 -0 -0 -0 -0 -0 -0 -0 -0 -1 -1 -0 -0 -0 -0
-0 -16 -27 -0 -0 -1 -0 -17 -0 -0 -0 -0 -0 -0 -0 -0 -0 -0 -0 -0 -0 -0 -0 -0 -0 -0 -0 -0 -0 -0 -1 -0 -0 -0 -0 -0 -0 -0 -0 -0 -0 -0 -1 -0 -0 -0 -0 -0 -0 -0 -0 -0 -0 -0
-1 -3 -0 -11 -0 -0 -0 -0 -0 -0 -0 -0 -0 -0 -0 -0 -0 -0 -0 -0 -0 -0 -0 -0 -0 -0 -0 -0 -0 -0 -0 -0 -0 -0 -0 -0 -0 -0 -0 -0 -0 -3 -0 -0 -0 -0 -0 -0 -0 -0 -0 -0 -0 -0
-0 -20 -44 -12 -0 -0 -0 -0 -0 -1 -0 -0 -0 -0 -0 -0 -0 -0 -0 -0 -0 -0 -0 -0 -0 -0 -0 -0 -0 -0 -0 -0 -0 -0 -0 -0 -0 -0 -1 -1 -6 -0 -0 -0 -0 -0 -0 -1 -1 -1 -0 -0 -0 -1
-0 -0 -0 -0 -0 -0 -0 -0 -0 -0 -0 -0 -0 -0 -0 -0 -0 -0 -0 -0 -0 -0 -0 -0 -0 -0 -0 -0 -0 -0 -0 -0 -0 -0 -0 -0 -5 -0 -0 -1 -0 -0 -1 -0 -0 -1 -0 -0 -0 -0 -0 -0 -0 -0
-0 -0 -0 -0 -0 -0 -0 -0 -0 -0 -0 -0 -0 -0 -0 -0 -0 -0 -0 -0 -0 -0 -0 -0 -0 -0 -0 -0 -0 -0 -0 -0 -0 -0 -0 -0 -0 -0 -1 -2 -0 -0 -0 -0 -0 -0 -0 -0 -0 -0 -0 -0 -0 -0
-0 -0 -0 -0 -0 -0 -0 -0 -2 -0 -0 -0 -0 -0 -0 -0 -0 -0 -0 -0 -0 -0 -0 -0 -0 -0 -0 -0 -0 -0 -0 -0 -0 -0 -0 -0 -0 -0 -0 -0 -1 -0 -0 -0 -0 -0 -0 -0 -0 -0 -0 -0 -0 -0
-0 -0 -0 -0 -0 -1 -0 -0 -0 -0 -0 -0 -1 -0 -0 -0 -1 -1 -0 -0 -0 -0 -0 -0 -0 -0 -0 -0 -0 -0 -0 -0 -0 -0 -0 -0 -0 -0 -0 -0 -0 -0 -0 -0 -0 -0 -0 -0 -0 -0 -0 -0 -0 -0
-0 -0 -0 -0 -0 -0 -0 -0 -0 -0 -0 -0 -0 -5 -1 -0 -1 -1 -0 -0 -0 -0 -0 -0 -0 -0 -0 -0 -0 -0 -0 -0 -0 -0 -0 -0 -0 -0 -0 -0 -0 -0 -0 -0 -0 -0 -0 -0 -0 -0 -0 -0 -0 -0
-0 -0 -0 -0 -0 -0 -0 -0 -0 -0 -0 -0 -0 -1 -2 -6 -5 -0 -0 -0 -0 -0 -0 -0 -0 -0 -0 -0 -0 -0 -0 -0 -0 -0 -0 -0 -0 -0 -0 -0 -0 -0 -0 -0 -0 -0 -0 -0 -0 -0 -0 -0 -0 -0
-0 -0 -0 -0 -0 -0 -0 -0 -0 -0 -0 -0 -1 -5 -0 -1 -0 -0 -0 -0 -0 -0 -0 -0 -0 -0 -0 -0 -0 -0 -0 -0 -0 -0 -0 -0 -0 -0 -0 -0 -0 -0 -0 -0 -0 -0 -0 -0 -0 -0 -0 -0 -0 -0
-0 -0 -0 -0 -0 -0 -0 -0 -2 -1 -1 -1 -1 -1 -4 -2 -2 -0 -0 -0 -0 -0 -0 -0 -0 -0 -0 -0 -0 -0 -0 -0 -0 -0 -0 -0 -0 -0 -0 -0 -0 -0 -0 -0 -0 -0 -0 -0 -0 -0 -0 -0 -1 -1
-0 -0 -0 -0 -0 -0 -0 -0 -0 -2 -1 -1 -1 -1 -0 -1 -0 -0 -0 -0 -0 -0 -0 -0 -0 -0 -0 -0 -0 -0 -0 -0 -0 -0 -0 -0 -0 -0 -0 -0 -0 -0 -0 -0 -0 -0 -0 -0 -0 -0 -0 -1 -0 -1
-0 -0 -0 -0 -0 -0 -0 -0 -0 -0 -1 -0 -0 -0 -0 -0 -0 -0 -0 -0 -0 -0 -0 -0 -0 -0 -0 -0 -0 -0 -0 -0 -0 -0 -0 -0 -0 -0 -0 -0 -0 -0 -0 -0 -0 -0 -0 -0 -0 -0 -1 -2 -3 -1
-0 -0 -0 -0 -0 -0 -0 -0 -0 -0 -0 -0 -0 -0 -0 -0 -0 -0 -0 -0 -0 -0 -0 -0 -0 -0 -0 -0 -0 -0 -0 -0 -0 -0 -0 -0 -0 -0 -0 -0 -0 -0 -0 -0 -0 -0 -0 -0 -0 -0 -1 -2 -2 -1
-0 -0 -0 -0 -0 -0 -0 -0 -0 -0 -0 -0 -0 -0 -0 -0 -0 -0 -0 -1 -0 -0 -0 -0 -0 -0 -0 -0 -0 -0 -0 -0 -0 -0 -0 -0 -0 -0 -0 -0 -0 -0 -0 -0 -0 -0 -0 -1 -0 -1 -2 -1 -2 -1
-0 -0 -0 -0 -0 -0 -0 -0 -0 -0 -0 -0 -0 -0 -0 -0 -0 -0 -0 -0 -0 -0 -0 -0 -0 -0 -0 -0 -0 -0 -0 -0 -0 -0 -0 -0 -0 -0 -0 -0 -0 -0 -0 -0 -0 -0 -1 -0 -1 -1 -1 -1 -0 -0
-0 -0 -0 -0 -0 -0 -0 -0 -0 -0 -0 -0 -0 -0 -0 -0 -0 -0 -0 -0 -0 -0 -0 -0 -0 -0 -0 -0 -0 -0 -0 -0 -0 -0 -0 -0 -0 -0 -0 -0 -0 -0 -0 -0 -0 -0 -0 -0 -0 -0 -1 -2 -3 -0
-0 -0 -0 -0 -0 -0 -0 -0 -0 -0 -0 -0 -0 -0 -0 -0 -0 -0 -0 -0 -0 -0 -1 -0 -0 -0 -0 -0 -0 -0 -0 -0 -0 -0 -0 -0 -0 -0 -0 -0 -0 -0 -0 -0 -0 -0 -0 -0 -0 -1 -0 -1 -2 -0
-0 -0 -0 -0 -0 -0 -0 -0 -0 -0 -0 -0 -0 -0 -0 -0 -0 -0 -0 -0 -11 -4 -0 -3 -0 -0 -0 -0 -0 -0 -0 -0 -0 -0 -0 -0 -0 -0 -0 -0 -0 -0 -0 -0 -0 -0 -0 -0 -1 -1 -1 -0 -0 -0
-0 -0 -0 -0 -0 -0 -0 -0 -0 -0 -0 -0 -0 -0 -0 -0 -0 -0 -0 -1 -5 -2 -0 -0 -0 -0 -0 -0 -0 -0 -0 -0 -0 -0 -0 -0 -0 -0 -0 -0 -0 -0 -0 -0 -0 -0 -0 -0 -0 -0 -0 -0 -0 -0
-0 -0 -0 -0 -0 -0 -0 -0 -1 -0 -0 -0 -0 -0 -0 -0 -0 -0 -0 -0 -0 -0 -0 -0 -0 -0 -0 -0 -0 -0 -0 -0 -0 -0 -0 -0 -0 -0 -0 -0 -0 -0 -0 -1 -1 -0 -0 -0 -0 -0 -0 -1 -1 -0
-4 -0 -0 -0 -0 -0 -0 -0 -0 -0 -0 -0 -1 -0 -0 -0 -0 -0 -0 -0 -1 -0 -0 -0 -0 -0 -0 -0 -0 -0 -0 -0 -0 -0 -0 -0 -0 -0 -0 -0 -0 -0 -0 -0 -0 -0 -0 -0 -0 -2 -2 -1 -0 -0
-0 -0 -0 -0 -0 -0 -0 -0 -0 -0 -0 -0 -0 -0 -0 -2 -0 -0 -0 -0 -0 -0 -0 -0 -0 -0 -0 -1 -0 -0 -0 -0 -0 -0 -0 -0 -0 -0 -0 -0 -0 -0 -0 -0 -0 -0 -0 -0 -0 -0 -0 -0 -0 -0
-1 -0 -0 -0 -0 -0 -0 -0 -0 -0 -0 -0 -0 -0 -0 -1 -0 -0 -0 -0 -0 -0 -0 -0 -0 -0 -0 -0 -1 -0 -0 -0 -0 -0 -0 -0 -0 -0 -0 -0 -0 -0 -0 -0 -0 -0 -0 -0 -0 -0 -0 -0 -0 -0
Wind_Speed
39 41 39 39 37 38 39 41 43 44 43 42 42 41 42 41 42 42 46 46 41 43 38 33 34 36 36 30 30 25 23 30 27 29 31 31 34 27 32 29 29 26 26 29 26 31 35 19 21 30 28 27 27 28
35 37 39 39 37 35 35 38 40 39 39 40 40 40 41 43 43 45 46 42 39 38 31 25 21 23 28 27 23 17 30 24 20 22 23 25 30 27 26 32 14 26 21 25 22 23 19 21 25 26 26 27 30 32
38 39 39 35 33 34 41 45 46 39 35 40 39 40 42 45 44 47 46 41 39 33 30 28 30 25 22 25 25 22 24 16 16 21 19 21 25 20 26 26 23 20 18 22 24 23 26 29 28 26 26 29 32 34
46 39 38 32 39 44 37 33 32 35 38 38 42 48 46 44 43 45 51 43 43 30 31 30 26 26 26 26 25 23 15 17 15 15 20 20 25 19 23 23 20 19 16 21 23 25 27 27 26 30 31 32 32 32
43 47 47 40 36 38 36 37 36 34 41 44 46 46 43 42 41 41 40 45 46 39 33 30 23 23 22 17 16 13 12 13 14 17 20 21 20 18 18 21 23 17 17 18 23 20 24 29 31 32 33 33 33 34
30 35 32 30 36 38 35 36 37 38 40 43 45 44 41 38 34 37 43 38 37 32 26 26 22 21 16 12 10 9 10 13 13 16 18 17 17 17 17 19 17 19 17 17 22 26 28 30 30 30 32 34 34 35
28 29 35 39 38 35 32 32 34 36 38 40 40 42 39 32 38 53 44 42 34 28 24 24 20 18 15 13 12 9 8 10 10 13 14 14 14 13 15 17 14 18 19 22 24 27 30 29 33 33 33 35 37 35
28 30 33 31 29 27 25 27 29 32 34 36 32 24 19 29 28 31 24 24 28 21 20 24 24 19 15 12 12 9 8 9 13 13 12 9 11 12 15 12 15 17 20 22 25 26 28 31 32 34 36 37 39 39
21 26 28 26 26 22 26 29 27 25 20 23 21 21 22 30 33 32 23 17 18 24 24 23 21 23 11 12 8 10 12 14 11 9 9 9 9 13 11 12 15 20 22 24 25 28 31 34 36 39 41 42 42 42
23 26 24 24 21 20 24 22 26 31 28 25 24 23 31 30 28 22 24 25 24 23 21 22 14 15 9 9 12 9 10 9 10 9 8 9 10 11 13 15 16 18 22 25 28 32 33 36 39 39 40 40 40 40
25 23 20 19 18 19 19 22 37 36 33 29 25 26 29 23 26 23 24 25 22 22 21 17 11 6 5 9 2 7 7 7 10 9 7 8 9 10 11 14 17 20 23 25 27 29 31 34 37 38 39 39 39 40
22 17 17 17 15 16 21 26 29 35 31 28 24 25 24 27 22 23 27 23 24 25 19 13 8 5 2 2 6 6 9 7 12 5 7 8 10 9 11 14 18 20 24 26 27 28 31 34 36 37 38 39 40 37
24 18 16 17 19 19 26 41 35 25 23 26 22 21 25 22 24 28 32 27 22 15 9 16 13 4 2 6 6 7 10 10 9 8 9 11 7 10 12 14 17 21 23 24 26 28 31 33 34 35 36 36 36 35
19 15 16 18 22 26 33 29 33 28 24 22 23 24 25 24 28 26 24 16 12 14 22 17 9 4 3 5 7 9 9 8 8 9 10 7 7 10 13 17 18 21 22 24 27 29 31 32 34 32 32 31 31 35
23 21 22 23 25 28 31 33 28 23 22 22 21 20 21 20 15 9 9 12 18 23 21 10 1 2 4 6 8 9 7 8 8 10 9 9 10 12 15 16 18 20 22 25 27 29 29 30 33 32 30 30 30 32
25 25 26 24 25 30 32 24 20 20 16 17 14 12 13 12 12 12 14 21 23 17 8 1 2 4 6 7 7 7 6 9 10 9 10 10 12 13 14 16 18 20 22 24 26 27 28 30 30 30 29 30 32 31
23 29 26 25 29 29 26 21 20 16 14 15 15 15 14 13 14 15 16 17 12 6 5 4 6 7 6 7 8 9 9 9 11 12 12 12 12 13 14 16 19 21 22 24 25 26 27 27 27 28 30 30 30 29
33 35 36 34 29 25 16 17 15 16 18 15 16 15 12 11 11 11 10 5 3 9 6 7 6 6 7 7 7 8 11 12 13 13 14 14 14 14 15 17 19 20 22 23 23 24 25 27 27 28 28 29 29 29
35 32 31 28 23 21 20 16 15 20 15 14 14 13 10 9 7 5 3 1 1 2 3 8 9 8 9 7 12 12 13 13 14 14 14 14 15 15 17 18 19 19 20 21 23 24 24 24 25 26 27 28 28 29
25 26 27 27 23 21 19 19 16 14 17 16 14 10 11 7 4 4 1 1 3 6 8 10 9 6 9 12 14 14 15 15 15 14 14 14 14 15 17 16 17 18 19 20 21 22 24 24 24 25 26 27 27 27
22 17 23 25 18 11 14 14 13 16 13 14 10 8 6 4 4 4 4 6 6 9 9 5 5 8 11 13 14 16 15 15 13 13 13 14 14 15 15 16 17 17 18 20 21 22 23 24 25 24 25 25 25 24
18 18 17 14 12 12 13 11 12 11 11 10 8 8 7 7 6 6 10 8 10 9 5 4 7 10 12 14 14 15 15 16 16 17 15 14 14 13 13 14 15 16 17 18 19 21 22 22 22 22 23 24 22 24
15 13 14 14 13 10 14 16 12 11 11 10 7 8 8 8 11 12 11 11 9 5 6 8 10 11 12 13 14 15 15 14 14 15 14 14 13 13 13 14 14 15 16 16 18 19 20 20 21 21 22 22 23 24
12 12 13 13 10 12 13 12 10 9 7 9 10 11 15 14 13 15 14 11 5 4 8 9 9 10 11 12 12 12 12 13 14 14 13 13 13 12 12 13 13 14 15 16 16 18 19 19 19 20 22 22 24 24
14 13 13 11 11 11 12 17 18 18 21 19 18 17 16 14 16 17 14 8 3 5 6 7 8 9 9 10 10 10 11 11 12 12 12 12 12 12 12 12 13 14 14 14 15 16 17 18 18 21 21 22 24 24
12 14 14 18 21 21 22 21 21 20 19 18 19 16 17 16 16 14 13 6 3 4 6 6 6 8 8 8 8 9 9 10 11 11 11 11 11 10 11 11 12 12 12 14 14 15 16 17 18 19 21 22 22 23
16 16 16 16 17 16 16 14 14 17 20 20 19 17 16 15 15 13 10 10 5 3 4 6 7 7 7 8 9 10 10 10 10 11 12 12 12 12 11 11 11 14 13 13 13 13 15 17 18 19 20 21 22 22
15 17 18 16 15 15 17 17 18 18 17 12 8 14 13 14 15 14 13 12 7 6 7 6 7 8 8 9 10 10 12 12 13 14 14 14 14 13 13 14 15 15 14 14 13 14 15 16 17 18 19 20 21 20
15 14 14 14 14 13 13 15 14 13 13 11 12 14 13 13 14 11 10 9 8 7 6 6 8 9 9 10 10 10 9 8 7 9 10 12 11 11 11 12 13 13 12 13 13 13 14 16 17 18 18 19 19 19
15 14 14 13 14 14 14 14 11 12 11 11 10 8 10 10 13 13 10 8 7 6 6 6 7 7 7 7 8 9 8 7 6 8 9 11 11 11 10 11 11 12 12 12 13 13 14 15 14 15 16 18 19 21
14 13 12 11 12 11 10 8 8 10 11 11 12 10 9 10 12 13 12 10 7 6 6 6 6 6 6 7 7 8 8 6 6 9 11 12 12 11 11 11 11 12 12 12 13 13 13 15 15 16 17 18 19 19
13 14 12 13 11 11 11 12 12 12 13 13 14 13 11 10 11 11 13 12 9 8 7 7 6 6 7 8 8 9 10 6 6 7 9 10 11 11 11 12 12 12 12 12 13 13 14 14 15 16 17 18 19 20
10 9 8 9 11 12 13 13 13 13 14 15 15 14 14 14 12 13 13 14 13 14 9 9 9 8 7 8 8 9 8 7 7 7 8 10 10 11 12 12 12 12 12 13 13 13 14 14 14 15 16 17 17 18
Wind_Direction
216 217 216 218 216 218 220 220 218 220 220 219 218 218 219 220 220 224 230 230 240 243 250 255 252 241 236 232 239 252 260 262 263 263 272 279 284 290 294 293 298 296 300 303 303 301 302 325 325 319 326 328 327 327
198 206 212 214 212 211 214 215 214 214 214 215 215 215 217 219 219 221 228 231 236 240 249 256 263 258 248 246 237 236 260 264 262 272 274 285 289 295 296 296 297 300 304 311 311 317 325 327 324 325 324 325 325 323
204 205 208 207 205 206 214 215 215 210 207 213 212 213 214 215 217 220 225 224 224 238 244 250 249 257 260 255 254 253 263 268 272 283 289 294 291 297 294 300 306 305 313 312 318 321 322 325 326 324 322 321 323 323
195 199 202 199 206 205 205 200 199 206 206 207 209 209 212 216 220 222 220 223 222 232 238 250 258 253 264 260 258 267 272 281 281 289 292 291 290 300 302 307 306 309 317 317 316 318 321 325 332 330 327 327 327 329
190 190 190 192 194 196 198 201 199 199 203 205 207 209 214 217 220 220 223 220 220 227 234 245 257 268 271 266 266 270 264 270 282 291 291 291 297 305 307 312 308 311 315 317 323 334 329 325 328 331 330 330 330 329
182 183 181 179 187 190 191 194 197 201 203 205 208 213 217 221 214 215 216 222 219 222 232 246 258 262 267 276 280 281 277 287 298 292 295 300 307 305 311 316 331 333 337 335 329 330 329 329 332 335 334 334 332 329
173 173 179 181 183 187 190 194 198 201 204 208 212 215 221 218 214 210 215 211 209 221 237 243 252 257 267 278 284 304 315 308 310 301 303 303 304 314 322 324 342 340 339 336 335 334 331 338 334 337 336 338 337 335
170 173 177 180 183 185 188 194 199 202 205 208 210 209 204 190 194 205 206 196 207 222 242 245 253 254 269 275 288 311 311 318 304 309 312 321 328 330 328 341 347 345 342 340 343 344 342 343 343 341 340 339 336 334
156 171 176 179 183 184 191 192 194 195 174 164 169 183 193 199 202 199 194 201 219 229 236 248 241 250 263 278 294 291 298 297 320 325 329 339 341 330 347 350 345 341 341 344 349 348 346 344 342 341 340 339 337 337
168 172 175 180 183 183 188 188 184 180 175 170 188 198 194 198 175 190 211 221 226 236 245 246 254 256 237 263 280 290 304 309 317 331 353 336 343 359 351 345 352 357 357 355 348 346 347 344 342 343 343 342 342 340
176 176 177 180 181 183 181 176 179 176 175 190 199 198 177 188 201 215 220 224 234 238 243 245 230 208 236 264 256 316 315 331 320 333 341 341 337 338 2 12 10 7 4 2 359 355 355 352 349 347 346 346 345 343
183 174 178 179 176 161 150 173 176 184 189 191 179 182 195 200 210 218 215 224 233 233 239 221 184 198 186 314 323 347 329 353 336 56 3 352 358 22 15 15 11 10 5 3 3 360 358 354 352 351 350 350 350 350
189 183 184 190 189 161 170 177 181 169 161 172 180 191 199 211 213 213 211 221 229 228 187 147 142 185 277 317 340 11 336 342 59 9 358 356 28 19 22 22 13 10 6 7 4 2 0 359 359 359 357 359 358 359
182 169 164 159 156 165 169 165 170 177 188 196 195 198 211 218 221 224 221 218 229 139 138 134 134 253 318 342 1 346 5 26 355 352 346 14 37 36 25 11 10 6 10 7 5 4 3 4 2 5 6 6 7 4
159 152 143 143 147 157 165 170 180 192 193 191 196 206 218 224 228 199 176 144 129 131 127 123 219 350 28 7 8 6 19 2 2 355 13 58 47 29 18 19 17 16 13 10 10 9 10 9 6 7 10 11 11 9
136 138 152 145 157 167 169 176 189 195 206 207 217 203 203 187 177 161 148 133 126 125 128 218 2 334 341 20 8 15 34 6 5 25 57 54 36 37 31 27 22 19 17 16 15 13 12 10 10 10 13 14 11 11
156 169 157 155 165 168 178 190 191 199 217 214 200 197 179 158 153 143 127 125 133 186 215 266 332 338 17 6 11 354 357 24 58 64 62 62 53 44 40 30 26 24 22 19 17 16 15 16 16 15 14 14 14 14
155 160 162 161 166 170 181 199 201 191 181 182 178 170 164 152 145 150 156 174 185 227 265 307 339 347 2 21 358 27 60 63 61 61 61 57 54 45 38 31 28 27 24 21 21 20 19 17 17 17 17 16 16 15
161 166 171 178 185 182 183 189 190 184 186 174 169 169 159 161 173 176 173 200 238 331 325 320 330 328 327 6 81 78 74 75 69 66 64 56 50 42 35 32 31 30 28 25 23 21 22 23 22 21 20 19 18 17
166 176 184 184 186 183 184 185 189 189 186 183 176 177 192 195 199 221 245 301 315 303 310 322 320 1 53 68 78 80 83 84 80 68 53 49 45 39 35 35 34 32 30 28 26 27 24 24 26 24 24 22 21 20
165 169 172 173 182 185 185 194 189 184 188 197 181 184 197 207 222 239 266 304 311 296 276 299 33 44 53 59 62 71 79 84 69 61 54 38 42 39 38 37 35 34 30 26 25 24 25 24 24 27 25 24 24 24
174 180 181 191 192 197 193 206 195 195 204 192 204 220 218 227 245 277 249 271 263 267 277 56 59 62 65 62 66 67 62 54 51 45 47 49 40 40 39 39 37 30 29 28 26 25 25 29 29 29 27 25 27 26
194 197 193 198 203 219 206 211 213 222 219 213 214 232 241 251 242 238 255 262 272 321 53 67 66 58 59 63 64 56 57 54 44 41 43 43 44 44 42 40 37 34 29 31 30 29 28 30 32 31 30 28 28 27
216 214 214 222 231 220 217 221 225 224 215 223 232 230 225 231 236 246 255 271 311 25 67 72 59 67 68 62 52 58 55 47 43 45 47 44 40 40 42 40 38 35 32 32 31 29 29 30 31 31 29 28 28 28
221 229 232 233 240 224 218 210 207 210 207 210 216 225 231 241 246 253 267 295 38 70 79 72 76 71 56 58 58 53 53 48 46 41 42 44 42 41 39 38 36 33 33 31 30 28 27 29 30 28 28 29 28 28
236 232 225 209 201 201 202 205 209 209 210 220 225 233 237 247 258 277 287 327 30 91 108 90 72 61 66 63 55 50 49 47 45 37 39 41 40 38 31 27 27 26 31 30 29 27 25 26 26 27 27 29 30 29
213 212 215 217 211 208 211 215 217 219 221 227 231 238 251 270 281 302 329 340 8 52 79 71 68 67 60 53 44 44 44 42 40 35 38 38 35 32 31 27 23 24 34 30 30 29 24 23 24 26 27 28 30 30
220 215 210 217 219 223 217 221 226 232 244 266 280 272 288 293 297 314 327 339 35 75 94 58 43 48 51 47 45 42 31 34 36 35 31 27 27 28 27 25 23 24 27 29 30 28 26 24 25 25 26 26 28 32
221 221 221 222 228 239 247 249 257 269 278 289 292 286 300 317 326 354 9 17 40 73 61 43 31 41 41 36 31 29 32 38 34 17 13 12 17 23 31 29 27 26 27 28 29 28 24 22 21 23 25 27 29 32
229 239 239 247 247 252 262 271 278 291 320 326 338 352 348 351 344 350 5 12 21 25 34 48 49 50 41 30 22 19 24 28 28 17 9 8 14 27 35 31 28 26 27 26 24 27 26 23 25 25 26 26 27 27
250 257 262 269 267 274 288 318 332 335 330 325 334 346 348 354 342 336 342 353 21 38 43 34 28 22 21 16 13 10 6 19 20 16 16 19 24 27 29 27 26 25 26 23 21 21 20 18 18 17 17 18 20 24
269 270 273 270 278 291 308 304 309 311 314 312 310 323 335 346 342 336 327 338 356 356 354 357 354 354 360 2 5 5 5 24 30 24 24 23 26 26 25 22 21 21 21 19 17 17 16 15 13 12 12 13 14 16
288 303 303 298 294 296 299 307 314 316 314 311 313 320 325 328 335 335 341 335 335 333 339 341 344 354 356 358 5 4 16 25 34 35 31 27 28 26 22 19 18 18 17 15 13 14 13 11 10 10 9 10 10 11